AB, Nunavut

11:24 PM CST on December 03, 2016 (GMT -0600)
Eureka

Weather History for CWEU - August, 2013

Change the Weather History Date:

Monday, August 12, 2013

  Actual Average Record
Temperature  
Mean Temperature 32 °F -  
Max Temperature 35 °F 40 °F 55 °F (1999)
Min Temperature 31 °F 34 °F 31 °F (2013)
Degree Days  
Heating Degree Days 32    
Moisture  
Dew Point 30 °F    
Average Humidity 89    
Maximum Humidity 93    
Minimum Humidity 80    
Precipitation  
Precipitation 0.12 in - - ()
Sea Level Pressure  
Sea Level Pressure 29.81 in    
Wind  
Wind Speed 7 mph ()    
Max Wind Speed 12 mph    
Max Gust Speed -    
Visibility 9.2 miles    
Events Fog , Rain , Snow    
Averages and records for this station are not official NWS values.
T = Trace of Precipitation, MM = Missing Value Source: Averaged Metar Reports

Daily Weather History Graph

Daily Weather History Graph

Search for Another Location

Airport or City:

Trip Planner

Search our weather history database for the weather conditions in past years. The results will help you decide how hot, cold, wet, or windy it might be!

Date:

Astronomy

Dec. 31, 1969 Rise Set
Actual Time Sun does not rise Sun does not rise
Civil Twilight Sun does not rise Sun does not rise
Nautical Twilight Sun does not rise Sun does not rise
Astronomical Twilight Sun does not rise Sun does not rise
Moon No Moon Rise No Moon Set
Length of Visible Light 24h 00m
Length of Day
24h 00m
Waxing Crescent, 31% of the Moon is Illuminated
Aug 12
Waxing Crescent
Aug 14
First Quarter
Aug 20
Full
Aug 28
Last Quarter
Sep 5
New

Hourly Weather History & Observations

Time (CDT) Temp. Windchill Dew Point Humidity Pressure Visibility Wind Dir Wind Speed Gust Speed Precip Events Conditions
1:00 AM 34 °F - 30 °F 81% 29.93 in 15 mi North 9.2 mph - - Rain Light Rain
1:00 AM 33.8 °F 27.0 °F 30.2 °F 87% 29.93 in 15.0 mi North 8.1 mph - N/A Rain Light Rain
2:00 AM 33.8 °F 30.8 °F 30.2 °F 87% 29.93 in 15.0 mi NW 3.5 mph - N/A Rain Light Rain
2:41 AM - - - N/A% - 6.0 mi North 3.5 mph - N/A   Unknown
3:00 AM 32.0 °F 24.8 °F 30.2 °F 93% 29.93 in 6.0 mi NNE 8.1 mph - N/A Snow Light Snow
3:36 AM - - - N/A% - 6.0 mi North 5.8 mph - N/A Rain Light Rain Showers
4:00 AM 32.0 °F 23.6 °F 30.2 °F 93% 29.93 in 6.0 mi NNE 10.4 mph - N/A Snow Light Snow
4:39 AM - - - N/A% - 10.0 mi NNE 10.4 mph - N/A Rain Light Rain
5:00 AM 33.8 °F 26.4 °F 32.0 °F 93% 29.92 in 8.0 mi North 9.2 mph - N/A   Light Drizzle
5:18 AM - - - N/A% - 6.0 mi North 8.1 mph - N/A   Light Drizzle
6:00 AM 32.0 °F 24.2 °F 30.2 °F 93% 29.91 in 4.0 mi North 9.2 mph - N/A Snow Light Snow
7:00 AM 31 °F - 30 °F 93% 29.91 in 1 mi NNW 5.8 mph - - Snow Light Snow
7:00 AM 32.0 °F 27.5 °F 30.2 °F 93% 29.91 in 1.0 mi NNW 4.6 mph - N/A Snow Light Snow
8:00 AM 32.0 °F 26.4 °F 30.2 °F 93% 29.89 in 1.0 mi West 5.8 mph - N/A Snow Light Snow
8:51 AM - - - N/A% - 1.0 mi West 8.1 mph - N/A   Overcast
9:00 AM 32.0 °F 24.8 °F 30.2 °F 93% 29.87 in 1.0 mi West 8.1 mph - N/A   Overcast
9:08 AM - - - N/A% - 0.5 mi West 5.8 mph - N/A Fog Light Drizzle
10:00 AM 32.0 °F 24.8 °F 30.2 °F 93% 29.86 in 4.0 mi West 8.1 mph - N/A   Overcast
11:00 AM 32.0 °F 24.8 °F 30.2 °F 93% 29.83 in 10.0 mi West 8.1 mph - N/A   Overcast
12:00 PM 32.0 °F 24.8 °F 30.2 °F 93% 29.82 in 15.0 mi West 8.1 mph - N/A   Overcast
1:00 PM 32.0 °F 24.8 °F 30.2 °F 93% 29.80 in 15.0 mi West 8.1 mph - N/A   Mostly Cloudy
2:00 PM 33.8 °F 26.4 °F 30.2 °F 87% 29.78 in 15.0 mi West 9.2 mph - N/A   Mostly Cloudy
3:00 PM 33.8 °F 25.3 °F 30.2 °F 87% 29.77 in 15.0 mi West 11.5 mph - N/A   Mostly Cloudy
4:00 PM 33.8 °F 26.4 °F 30.2 °F 87% 29.75 in 15.0 mi West 9.2 mph - N/A   Mostly Cloudy
5:00 PM 33.8 °F 25.8 °F 30.2 °F 87% 29.73 in 15.0 mi West 10.4 mph - N/A   Overcast
6:00 PM 33.8 °F 26.4 °F 30.2 °F 87% 29.70 in 15.0 mi West 9.2 mph - N/A Rain Light Rain
6:40 PM - - - N/A% - 15.0 mi West 6.9 mph - N/A   Mostly Cloudy
7:00 PM 34 °F - 30 °F 80% 29.67 in 15 mi WNW 3.5 mph - - Rain Light Rain
7:00 PM 33.8 °F 30.8 °F 30.2 °F 87% 29.67 in 15.0 mi WNW 3.5 mph - N/A   Mostly Cloudy
7:50 PM - - - N/A% - 15.0 mi Calm Calm - N/A Rain Light Rain
8:00 PM 33.8 °F - 30.2 °F 87% 29.64 in 15.0 mi Calm Calm - N/A Rain Light Rain
9:00 PM 33.8 °F 28.6 °F 30.2 °F 87% 29.63 in 8.0 mi NW 5.8 mph - N/A Rain Light Rain
9:50 PM - - - N/A% - 4.0 mi North 11.5 mph - N/A Rain Light Rain
10:00 PM 35.6 °F 28.0 °F 32.0 °F 87% 29.64 in 5.0 mi North 10.4 mph - N/A Rain Light Rain